Zurück zum Katalog

COSMOS 1823 DEB

AktivLEO
NORAD 18730·DEBRIS·🇷🇺 Russia

Gestartet Feb 20, 1987 von Plesetsk Cosmodrome

Loading…

Nächste Überflüge (nächste 24 Stunden)

TLE

AktuellSource: Space-Track

Epoche: Sep 14, 2026, 06:15 UTC

1 18730U 87020H   26257.26074359 -.00000091  00000-0 -74953-3 0  9997
2 18730  73.9339 182.8925 0183202 294.3674 221.8635 12.13477306715443

Verfolge COSMOS 1823 DEB in Echtzeit mit AllMySat

Download on the App Store